Retour au catalogue

ICEYE-X34

ActifSciencePO
NORAD 58294·PAYLOAD·🇺🇸 United States

Lancé Nov 11, 2023 depuis Vandenberg Space Force Base

Loading…

Prochains Passages (prochaines 24 heures)

TLE

FraisSource: Space-Track

Époque: Sep 13, 2026, 11:01 UTC

1 58294U 23174AQ  26256.45959609  .04747814  24791-5  11133-2 0  9997
2 58294  97.3836 353.9428 0014051 275.7221  84.2470 16.29503332159685

Suivez ICEYE-X34 en temps réel avec AllMySat

Download on the App Store